Tracking 31013 objects as of 10-Jul-2025
HD Live streaming from Space Station
objects crossing your sky now

THOR BURNER 2 R/B

Track THOR BURNER 2 R/B now!
10-day predictions


NORAD ID: 4954
Int'l Code: 1971-012B
Perigee: 741.1 km
Apogee: 793.2 km
Inclination: 98.4 °
Period: 100.0 minutes
Semi major axis: 7138 km
RCS: 1.7004 m2 (large)
Launch date: February 17, 1971
Source: United States (US)
Launch site: AIR FORCE WESTERN TEST RANGE (AFWTR)

Note: This is a ROCKET BODY
Your satellite tracking list
Your tracking list is empty




NASA's NSSDC Master Catalog

Two Line Element Set (TLE):
1 04954U 71012B   25190.83968790  .00000139  00000-0  57674-4 0  9996
2 04954  98.3692  48.5178 0036494 179.2267 180.8984 14.39536432846617
Source of the keplerian elements: AFSPC